GW3359 Weather Reports


time (UTC)temp
F
wind
direction
speed
knots
gust
knots
rain 1hr
in
rain 24hr
in
rain mn
in
humidity
%
barometer
mb
20260504082003 51 335 0.0 1.7 0.00 0.01 0.00 75 1014.2
20260504081523 51 335 0.0 5.2 0.00 0.01 0.00 74 1014.3
20260504081007 51 335 0.0 5.2 0.00 0.01 0.00 74 1014.3
20260504080506 51 1 0.9 4.3 0.00 0.01 0.00 74 1014.4
20260504050506 51 46 1.7 5.2 0.00 0.01 0.00 69 1015.2
20260504050015 51 84 0.0 5.2 0.00 0.01 0.00 70 1015.2
20260504045507 51 91 0.9 4.3 0.00 0.01 0.01 70 1015.3
20260504045004 51 23 0.0 2.6 0.00 0.01 0.01 70 1015.2
20260504044523 51 105 0.0 1.7 0.00 0.01 0.01 70 1015.3
20260504044007 51 13 0.0 0.0 0.00 0.01 0.01 70 1015.4
20260504043507 51 13 0.0 0.0 0.00 0.01 0.01 70 1015.5
20260504043026 51 13 0.0 0.0 0.00 0.01 0.01 69 1015.6
20260504042508 51 13 0.0 0.9 0.00 0.01 0.01 69 1015.5
20260504042011 51 13 0.0 0.9 0.00 0.01 0.01 69 1015.6
20260504041529 51 13 0.0 0.0 0.00 0.01 0.01 69 1015.7
20260504041007 51 13 0.0 0.0 0.00 0.01 0.01 69 1015.7
20260504040511 51 13 0.0 0.0 0.00 0.01 0.01 68 1015.8
20260504040030 51 13 0.0 0.0 0.00 0.01 0.01 68 1015.8
20260504035511 51 13 0.0 0.0 0.00 0.01 0.01 68 1015.9
20260504035003 51 13 0.0 0.0 0.00 0.01 0.01 68 1015.8
20260504034522 51 13 0.0 0.0 0.00 0.01 0.01 68 1015.9
20260504034010 52 13 0.0 0.0 0.00 0.01 0.01 69 1015.9
20260504033507 52 13 0.0 0.0 0.00 0.01 0.01 67 1016.0
20260504033025 52 13 0.0 0.0 0.00 0.01 0.01 67 1015.9
20260504032508 52 13 0.0 0.0 0.00 0.01 0.01 67 1015.9
20260504032013 52 13 0.0 0.0 0.00 0.01 0.01 67 1016.0
20260504031529 52 13 0.0 0.9 0.00 0.01 0.01 65 1016.0
20260504031007 52 13 0.0 0.9 0.00 0.01 0.01 66 1016.0
20260504030508 52 13 0.0 0.9 0.00 0.01 0.01 66 1016.0
20260504030029 52 13 0.0 0.9 0.00 0.01 0.01 66 1016.0
20260504025508 53 13 0.0 0.9 0.00 0.01 0.01 64 1016.0
20260504025011 53 13 0.0 0.0 0.00 0.01 0.01 65 1016.0
20260504024530 53 13 0.0 0.9 0.00 0.01 0.01 64 1016.0
20260504024011 53 13 0.0 0.9 0.00 0.01 0.01 64 1015.9
20260504023505 53 13 0.0 0.0 0.00 0.01 0.01 64 1016.0
20260504023022 53 13 0.0 0.0 0.00 0.01 0.01 63 1016.0
20260504022516 53 13 0.0 0.0 0.00 0.01 0.01 62 1015.9
20260504022010 54 13 0.0 0.0 0.00 0.01 0.01 63 1015.9
20260504021528 54 13 0.0 0.0 0.00 0.01 0.01 64 1015.9
20260504021009 54 13 0.0 0.0 0.00 0.01 0.01 62 1015.8
20260504020507 54 13 0.0 0.9 0.00 0.01 0.01 61 1015.8
20260504020028 54 13 0.0 0.9 0.00 0.01 0.01 61 1015.7
20260504015508 54 13 0.0 1.7 0.00 0.01 0.01 61 1015.7
20260504015016 55 13 0.0 1.7 0.00 0.01 0.01 61 1015.5
20260504014542 55 13 0.0 0.9 0.00 0.01 0.01 59 1015.4
20260504014011 55 13 0.0 0.9 0.00 0.01 0.01 60 1015.3
20260504013512 56 13 0.0 0.0 0.00 0.01 0.01 60 1015.3
20260504013034 56 13 0.0 0.0 0.00 0.01 0.01 58 1015.3
20260504012515 57 13 0.0 0.0 0.00 0.01 0.01 57 1015.4
20260504012010 57 13 0.0 0.9 0.00 0.01 0.01 58 1015.4
20260504011522 57 13 0.0 0.9 0.00 0.01 0.01 55 1015.4
20260504011010 58 13 0.0 0.0 0.00 0.01 0.01 55 1015.4
20260504010514 59 13 0.0 0.0 0.00 0.01 0.01 53 1015.5
20260504010028 59 13 0.0 0.0 0.00 0.01 0.01 53 1015.7
20260504005508 60 13 0.0 0.0 0.00 0.01 0.01 54 1015.7
20260504005013 60 13 0.0 0.0 0.00 0.01 0.01 53 1015.7
20260504004530 60 13 0.0 0.0 0.00 0.01 0.01 50 1015.7
20260504004008 61 13 0.0 0.0 0.00 0.01 0.01 51 1015.6
20260504003507 62 13 0.0 0.0 0.00 0.01 0.01 52 1015.5
20260504003018 62 13 0.0 0.9 0.00 0.01 0.01 51 1015.5
20260504002508 63 13 0.0 0.9 0.00 0.01 0.01 48 1015.4
20260504002002 63 13 0.0 0.9 0.00 0.01 0.01 48 1015.4
20260504001503 64 13 0.0 0.9 0.00 0.01 0.01 47 1015.5
20260504001004 64 13 0.0 1.7 0.00 0.01 0.01 50 1015.6
20260504000504 65 13 0.0 2.6 0.00 0.01 0.01 49 1015.6
20260504000006 65 13 0.0 2.6 0.00 0.01 0.01 46 1015.6
20260503235505 66 324 0.0 4.3 0.00 0.01 0.01 45 1015.7
20260503235003 67 68 1.7 4.3 0.00 0.01 0.01 38 1015.7
20260503234509 67 60 1.7 4.3 0.00 0.01 0.01 38 1015.9
20260503234004 67 36 1.7 4.3 0.00 0.01 0.01 38 1015.9
20260503233504 67 67 0.9 5.2 0.00 0.01 0.01 37 1015.9
20260503233019 67 91 1.7 5.2 0.00 0.01 0.01 36 1015.9
20260503232505 68 109 1.7 6.1 0.00 0.01 0.01 36 1015.9
20260503232004 68 51 2.6 7.0 0.00 0.01 0.01 36 1016.0
20260503231520 68 51 3.5 7.0 0.00 0.01 0.01 36 1015.9
20260503231005 68 107 1.7 4.3 0.00 0.01 0.01 37 1016.0
20260503230502 68 64 1.7 6.1 0.00 0.01 0.01 36 1015.9
20260503230004 69 54 1.7 7.0 0.00 0.01 0.01 38 1015.9
20260503225506 69 77 2.6 7.0 0.00 0.01 0.01 35 1016.0
20260503225003 69 67 2.6 6.1 0.00 0.01 0.01 34 1015.9
20260503224507 69 90 0.9 5.2 0.00 0.01 0.01 36 1015.9
20260503224007 69 63 1.7 5.2 0.00 0.01 0.01 37 1016.0
20260503223504 69 68 2.6 6.1 0.00 0.01 0.01 38 1016.2
20260503223013 69 107 2.6 7.0 0.00 0.01 0.01 35 1016.3
20260503222504 69 65 3.5 7.8 0.00 0.01 0.01 35 1016.3
20260503222004 69 86 2.6 7.8 0.00 0.01 0.01 36 1016.5
20260503221519 69 59 3.5 6.1 0.00 0.01 0.01 36 1016.5
20260503221007 69 320 1.7 7.8 0.00 0.01 0.01 35 1016.5
20260503220508 69 127 2.6 7.8 0.00 0.01 0.01 36 1016.8
20260503220025 69 73 1.7 5.2 0.00 0.01 0.01 36 1016.7
20260503215510 69 81 1.7 4.3 0.00 0.01 0.01 37 1016.8
20260503215002 69 90 0.9 7.0 0.00 0.01 0.01 38 1016.9
20260503214518 69 100 2.6 7.8 0.00 0.01 0.01 37 1017.0
20260503214003 69 70 2.6 7.8 0.00 0.01 0.01 36 1017.0
20260503213507 69 68 2.6 7.8 0.00 0.01 0.01 37 1017.1
20260503213012 69 41 2.6 7.8 0.00 0.01 0.01 35 1017.1
20260503212504 69 94 3.5 6.1 0.00 0.01 0.01 34 1017.2
20260503212005 69 75 1.7 7.0 0.00 0.01 0.01 35 1017.3
20260503211516 69 115 2.6 7.8 0.00 0.01 0.01 36 1017.4
20260503211007 69 54 3.5 11.3 0.00 0.01 0.01 35 1017.4
20260503210507 69 356 1.7 11.3 0.00 0.01 0.01 35 1017.4
20260503210039 69 111 1.7 7.0 0.00 0.01 0.01 34 1017.5
20260503205516 69 115 1.7 6.1 0.00 0.01 0.01 36 1017.6
20260503205007 69 115 2.6 9.6 0.00 0.01 0.01 34 1017.6
20260503204525 69 68 1.7 9.6 0.00 0.01 0.01 41 1017.7
20260503204013 69 51 3.5 6.1 0.00 0.01 0.01 33 1017.9
20260503203502 69 56 1.7 7.0 0.00 0.01 0.01 35 1018.0
20260503203014 69 77 1.7 7.0 0.00 0.01 0.01 34 1018.1
20260503202504 69 70 2.6 10.4 0.00 0.01 0.01 33 1018.3
20260503202004 69 61 1.7 10.4 0.00 0.01 0.01 37 1018.3
20260503201513 69 92 3.5 8.7 0.00 0.01 0.01 36 1018.3
20260503201004 69 77 1.7 7.8 0.00 0.01 0.01 36 1018.5
20260503200509 69 86 2.6 7.8 0.00 0.01 0.01 39 1018.6
20260503200022 68 66 1.7 7.8 0.00 0.01 0.01 35 1018.6
20260503195507 68 73 0.9 7.8 0.00 0.01 0.01 38 1018.7
20260503195009 68 59 3.5 7.8 0.00 0.01 0.01 36 1018.8
20260503194523 68 45 0.9 6.1 0.00 0.01 0.01 38 1018.9
20260503194007 68 99 0.9 6.1 0.00 0.01 0.01 41 1018.9
20260503193508 68 136 1.7 8.7 0.00 0.01 0.01 37 1018.9
20260503193025 67 72 0.9 8.7 0.00 0.01 0.01 40 1019.1
20260503192508 68 43 3.5 7.0 0.00 0.01 0.01 39 1019.1
20260503192005 68 64 0.9 4.3 0.00 0.01 0.01 41 1019.2
20260503191510 67 359 0.9 7.0 0.00 0.01 0.01 38 1019.1
20260503191003 67 77 0.0 7.0 0.00 0.01 0.01 42 1019.2
20260503190506 67 30 2.6 7.0 0.00 0.01 0.01 38 1019.3
20260503190017 67 70 1.7 6.1 0.00 0.01 0.01 38 1019.3
20260503185504 67 127 0.9 6.1 0.00 0.01 0.01 38 1019.5
20260503185009 66 89 0.9 7.8 0.00 0.01 0.01 37 1019.6
20260503184527 66 37 2.6 7.8 0.00 0.01 0.01 38 1019.7
20260503184011 66 100 0.9 6.1 0.00 0.01 0.01 42 1019.7
20260503183511 66 160 1.7 6.1 0.00 0.01 0.01 38 1019.8
20260503183025 65 199 2.6 7.8 0.00 0.01 0.01 38 1019.8
20260503182507 65 167 0.9 7.8 0.00 0.01 0.01 37 1019.9
20260503182010 65 77 1.7 6.1 0.00 0.01 0.01 37 1020.0
20260503181525 65 62 3.5 6.1 0.00 0.01 0.01 37 1020.0
20260503181010 65 219 1.7 5.2 0.00 0.01 0.01 36 1020.1
20260503180504 65 167 1.7 6.1 0.00 0.01 0.01 40 1020.1
20260503180014 65 200 1.7 6.1 0.00 0.01 0.01 37 1020.2
20260503175503 65 42 1.7 6.1 0.00 0.01 0.01 39 1020.2
20260503175003 64 199 0.9 7.8 0.00 0.01 0.01 38 1020.2
20260503174521 64 82 1.7 7.8 0.00 0.01 0.01 43 1020.3
20260503174010 64 100 0.9 6.1 0.00 0.01 0.01 39 1020.4
20260503173505 63 103 0.9 6.1 0.00 0.01 0.01 38 1020.5
20260503173024 63 83 0.9 6.1 0.00 0.01 0.01 39 1020.6
20260503172509 63 67 0.9 7.0 0.00 0.01 0.01 40 1020.6
20260503172013 63 53 2.6 7.8 0.00 0.01 0.01 40 1020.8
20260503171528 63 96 4.3 7.8 0.00 0.01 0.01 38 1020.7
20260503171008 62 59 1.7 3.5 0.00 0.01 0.01 38 1020.8
20260503170508 62 73 1.7 4.3 0.00 0.01 0.01 40 1020.9
20260503151003 56 303 0.0 6.1 0.00 0.01 0.01 54 1021.9
20260503150503 56 96 1.7 6.1 0.00 0.01 0.01 49 1022.0
20260503131004 42 212 0.0 0.0 0.00 0.00 0.00 94 1021.9
20260503130506 42 84 0.0 0.0 0.00 0.00 0.00 94 1021.9
20260503110506 38 226 0.0 0.0 0.00 0.00 0.00 92 1020.7
20260503090505 40 226 0.0 0.0 0.00 0.00 0.00 92 1020.2